EW0871 Weather Reports


time (UTC)temp
F
wind
direction
speed
knots
gust
knots
rain 1hr
in
rain 24hr
in
rain mn
in
humidity
%
barometer
mb
20260505112007 42 0 0.0 0.0 0.00 0.00 0.00 92 1018.7
20260505111508 42 0 0.0 0.0 0.00 0.00 0.00 92 1018.9
20260505111009 42 0 0.0 0.0 0.00 0.00 0.00 91 1018.7
20260505110521 42 0 0.0 0.0 0.00 0.00 0.00 91 1018.7
20260505102009 43 0 0.0 0.0 0.00 0.00 0.00 89 1018.6
20260505101510 43 0 0.0 0.0 0.00 0.00 0.00 89 1018.6
20260505101012 43 0 0.0 0.0 0.00 0.00 0.00 89 1018.6
20260505100507 43 0 0.0 0.0 0.00 0.00 0.00 88 1018.5
20260505100009 43 0 0.0 0.0 0.00 0.00 0.00 88 1018.5
20260505095510 44 0 0.0 0.0 0.00 0.00 0.00 87 1018.4
20260505095008 44 0 0.0 0.0 0.00 0.00 0.00 88 1018.4
20260505094508 44 0 0.0 0.0 0.00 0.00 0.00 87 1018.3
20260505094014 45 0 0.0 0.0 0.00 0.00 0.00 87 1018.3
20260505093512 45 0 0.0 0.0 0.00 0.00 0.00 87 1018.3
20260505092010 45 0 0.0 0.0 0.00 0.00 0.00 85 1018.3
20260505091510 45 0 0.0 0.0 0.00 0.00 0.00 85 1018.3
20260505091009 46 0 0.0 0.0 0.00 0.00 0.00 84 1018.2
20260505090508 46 0 0.0 0.0 0.00 0.00 0.00 84 1018.3
20260505090011 46 0 0.0 0.0 0.00 0.00 0.00 83 1018.2
20260505085511 47 0 0.0 0.0 0.00 0.00 0.00 83 1018.1
20260505085009 47 0 0.0 0.0 0.00 0.00 0.00 83 1018.1
20260505084509 47 0 0.0 0.0 0.00 0.00 0.00 83 1018.1
20260505084008 48 0 0.0 0.0 0.00 0.00 0.00 82 1018.1
20260505083508 48 0 0.0 0.0 0.00 0.00 0.00 80 1018.1
20260505083008 48 0 0.0 0.0 0.00 0.00 0.00 80 1018.1
20260505082507 49 0 0.0 0.0 0.00 0.00 0.00 79 1018.0
20260505082007 50 0 0.0 0.0 0.00 0.00 0.00 79 1017.9
20260505081507 50 0 0.0 0.0 0.00 0.00 0.00 79 1017.9
20260505080512 50 0 0.0 0.0 0.00 0.00 0.00 80 1017.8
20260505080010 49 0 0.0 0.0 0.00 0.00 0.00 81 1017.8
20260505075508 49 0 0.0 0.0 0.00 0.00 0.00 80 1017.8
20260505075009 49 0 0.0 0.0 0.00 0.00 0.00 78 1017.8
20260505074508 50 0 0.0 0.0 0.00 0.00 0.00 78 1017.7
20260505074009 50 0 0.0 0.0 0.00 0.00 0.00 77 1017.7
20260505073007 51 0 0.0 0.0 0.00 0.00 0.00 77 1017.5
20260505072507 51 0 0.0 0.0 0.00 0.00 0.00 78 1017.5
20260505072008 51 0 0.0 0.0 0.00 0.00 0.00 78 1017.7
20260505071508 50 0 0.0 0.0 0.00 0.00 0.00 79 1017.8
20260505071010 50 0 0.0 0.0 0.00 0.00 0.00 79 1017.9
20260505070558 50 0 0.0 0.0 0.00 0.00 0.00 78 1017.9
20260505070010 51 0 0.0 0.0 0.00 0.00 0.00 78 1018.0
20260505065008 52 0 0.0 0.0 0.00 0.00 0.00 76 1017.8
20260505064007 52 0 0.0 1.7 0.00 0.00 0.00 76 1017.9
20260505063509 52 0 0.0 1.7 0.00 0.00 0.00 78 1018.0
20260505063009 51 203 0.0 3.5 0.00 0.00 0.00 79 1018.1
20260505062508 50 207 0.9 3.5 0.00 0.00 0.00 81 1018.1
20260505062011 50 0 0.0 0.0 0.00 0.00 0.00 81 1018.1
20260505061511 50 0 0.0 0.0 0.00 0.00 0.00 81 1018.2
20260505060508 50 0 0.0 0.9 0.00 0.00 0.00 81 1018.2
20260505060012 50 0 0.0 1.7 0.00 0.00 0.00 80 1018.2
20260505055507 50 182 0.0 1.7 0.00 0.00 0.00 80 1018.2
20260505055007 50 0 0.0 0.0 0.00 0.00 0.00 79 1018.2
20260505054508 51 0 0.0 0.0 0.00 0.00 0.00 78 1018.2
20260505054008 51 0 0.0 0.0 0.00 0.00 0.00 79 1018.3
20260505053008 51 0 0.0 0.0 0.00 0.00 0.00 76 1018.1
20260505052508 52 0 0.0 0.0 0.00 0.00 0.00 76 1018.2
20260505052007 52 0 0.0 0.0 0.00 0.00 0.00 77 1018.2
20260505051507 52 0 0.0 0.0 0.00 0.00 0.00 77 1018.1
20260505051010 52 0 0.0 0.0 0.00 0.00 0.00 78 1018.2
20260505050508 51 0 0.0 0.0 0.00 0.00 0.00 78 1018.3
20260505041508 53 0 0.0 0.0 0.00 0.00 0.00 73 1018.2
20260505041007 54 0 0.0 0.0 0.00 0.00 0.00 72 1018.3
20260505035508 54 0 0.0 0.0 0.00 0.00 0.00 71 1018.4
20260505035007 54 0 0.0 0.0 0.00 0.00 0.00 70 1018.4
20260505034507 54 0 0.0 0.0 0.00 0.00 0.00 70 1018.4
20260505033007 55 0 0.0 0.0 0.00 0.00 0.00 68 1018.5
20260505032506 56 0 0.0 0.0 0.00 0.00 0.00 67 1018.5
20260505032006 56 0 0.0 0.0 0.00 0.00 0.00 66 1018.6
20260505031009 57 0 0.0 0.0 0.00 0.00 0.00 64 1018.6
20260505030509 57 0 0.0 0.0 0.00 0.00 0.00 63 1018.6
20260505030007 58 0 0.0 0.0 0.00 0.00 0.00 63 1018.6
20260505025507 58 0 0.0 0.0 0.00 0.00 0.00 62 1018.6
20260505024509 58 0 0.0 0.0 0.00 0.00 0.00 61 1018.5
20260505024006 58 0 0.0 0.0 0.00 0.00 0.00 61 1018.5
20260505023007 59 0 0.0 1.7 0.00 0.00 0.00 60 1018.4
20260505022506 59 183 0.0 2.6 0.00 0.00 0.00 60 1018.3
20260505022007 59 188 0.9 2.6 0.00 0.00 0.00 60 1018.3
20260505021007 60 175 0.0 1.7 0.00 0.00 0.00 59 1018.3
20260505020011 60 0 0.0 0.9 0.00 0.00 0.00 58 1018.2
20260505015006 60 193 0.9 1.7 0.00 0.00 0.00 57 1018.1
20260505014507 61 190 0.0 1.7 0.00 0.00 0.00 57 1018.1
20260505014007 61 0 0.0 0.9 0.00 0.00 0.00 56 1018.0
20260505013507 61 0 0.0 0.0 0.00 0.00 0.00 56 1017.9
20260505013007 62 0 0.0 1.7 0.00 0.00 0.00 55 1017.8
20260505012506 62 169 0.0 1.7 0.00 0.00 0.00 55 1017.7
20260505012007 62 0 0.0 2.6 0.00 0.00 0.00 54 1017.7
20260505011508 62 192 0.0 2.6 0.00 0.00 0.00 54 1017.6
20260505010507 63 0 0.0 2.6 0.00 0.00 0.00 54 1017.6
20260505010008 63 174 0.9 2.6 0.00 0.00 0.00 54 1017.6
20260505005508 63 0 0.0 1.7 0.00 0.00 0.00 53 1017.6
20260505004508 64 191 0.0 2.6 0.00 0.00 0.00 52 1017.3
20260505004007 64 178 0.0 2.6 0.00 0.00 0.00 52 1017.3
20260505003507 64 172 0.9 3.5 0.00 0.00 0.00 52 1017.3
20260505003006 65 173 1.7 4.3 0.00 0.00 0.00 51 1017.2
20260505002507 65 172 1.7 4.3 0.00 0.00 0.00 51 1017.1
20260505002007 66 169 0.9 3.5 0.00 0.00 0.00 51 1017.3
20260505001507 66 165 1.7 4.3 0.00 0.00 0.00 50 1017.2
20260505001007 66 163 1.7 4.3 0.00 0.00 0.00 50 1017.2
20260505000010 67 148 1.7 6.1 0.00 0.00 0.00 49 1017.1
20260504235007 67 138 0.9 5.2 0.00 0.00 0.00 48 1017.0
20260504234518 68 143 1.7 5.2 0.00 0.00 0.00 48 1016.8
20260504234007 68 144 2.6 5.2 0.00 0.00 0.00 47 1016.8
20260504233508 68 136 1.7 7.8 0.00 0.00 0.00 47 1016.8
20260504233007 68 137 3.5 7.8 0.00 0.00 0.00 46 1016.8
20260504232509 69 151 2.6 7.8 0.00 0.00 0.00 45 1016.7
20260504232007 69 149 4.3 7.8 0.00 0.00 0.00 44 1016.7
20260504231507 70 135 2.6 7.0 0.00 0.00 0.00 44 1016.7
20260504231007 70 133 2.6 7.0 0.00 0.00 0.00 43 1016.6
20260504230508 70 141 3.5 6.1 0.00 0.00 0.00 43 1016.6
20260504230008 71 151 2.6 5.2 0.00 0.00 0.00 42 1016.6
20260504225510 71 151 1.7 6.1 0.00 0.00 0.00 43 1016.6
20260504225012 72 163 1.7 7.8 0.00 0.00 0.00 41 1016.5
20260504224506 72 175 2.6 7.8 0.00 0.00 0.00 41 1016.5
20260504224007 72 166 3.5 7.8 0.00 0.00 0.00 40 1016.5
20260504223507 73 159 4.3 7.8 0.00 0.00 0.00 39 1016.6
20260504223008 73 155 2.6 7.8 0.00 0.00 0.00 39 1016.6
20260504222507 73 158 2.6 7.0 0.00 0.00 0.00 39 1016.7
20260504222008 74 171 1.7 9.6 0.00 0.00 0.00 39 1016.6
20260504221508 74 159 3.5 9.6 0.00 0.00 0.00 38 1016.7
20260504221006 74 150 3.5 6.1 0.00 0.00 0.00 37 1016.7
20260504220507 74 160 2.6 7.8 0.00 0.00 0.00 38 1016.7
20260504220009 75 157 4.3 7.8 0.00 0.00 0.00 36 1016.7
20260504215507 76 158 1.7 6.1 0.00 0.00 0.00 37 1016.7
20260504215006 76 151 2.6 6.1 0.00 0.00 0.00 36 1016.6
20260504214507 76 143 3.5 6.1 0.00 0.00 0.00 36 1016.6
20260504214007 76 153 2.6 6.1 0.00 0.00 0.00 37 1016.6
20260504213508 76 168 1.7 6.1 0.00 0.00 0.00 35 1016.7
20260504213006 77 171 1.7 6.1 0.00 0.00 0.00 34 1016.5
20260504212007 77 175 0.9 6.1 0.00 0.00 0.00 32 1016.6
20260504211507 77 202 2.6 9.6 0.00 0.00 0.00 30 1016.5
20260504211007 76 211 2.6 10.4 0.00 0.00 0.00 32 1016.5
20260504210506 77 208 4.3 10.4 0.00 0.00 0.00 30 1016.5
20260504210009 77 204 0.9 10.4 0.00 0.00 0.00 31 1016.6
20260504205507 77 202 2.6 10.4 0.00 0.00 0.00 28 1016.7
20260504205006 78 205 0.9 10.4 0.00 0.00 0.00 30 1016.5
20260504204506 78 204 1.7 10.4 0.00 0.00 0.00 30 1016.7
20260504203507 77 201 2.6 7.8 0.00 0.00 0.00 31 1016.8
20260504203006 77 205 4.3 7.8 0.00 0.00 0.00 29 1016.8
20260504202507 77 213 3.5 7.8 0.00 0.00 0.00 30 1016.7
20260504202006 77 207 0.9 6.1 0.00 0.00 0.00 31 1016.8
20260504201507 77 207 3.5 8.7 0.00 0.00 0.00 31 1016.9
20260504201007 76 210 0.0 8.7 0.00 0.00 0.00 34 1017.0
20260504200507 76 199 3.5 8.7 0.00 0.00 0.00 31 1017.0
20260504200015 76 190 2.6 8.7 0.00 0.00 0.00 31 1017.1
20260504195508 77 186 4.3 8.7 0.00 0.00 0.00 30 1017.0
20260504194507 77 188 2.6 8.7 0.00 0.00 0.00 31 1017.1
20260504194008 77 199 1.7 7.8 0.00 0.00 0.00 31 1017.1
20260504193506 78 198 2.6 5.2 0.00 0.00 0.00 28 1017.2
20260504193007 78 200 2.6 5.2 0.00 0.00 0.00 30 1017.4
20260504192006 78 0 0.0 1.7 0.00 0.00 0.00 33 1017.5
20260504191507 78 212 0.9 4.3 0.00 0.00 0.00 30 1017.5
20260504191008 77 194 0.9 4.3 0.00 0.00 0.00 31 1017.7
20260504190507 76 194 0.0 3.5 0.00 0.00 0.00 35 1017.7
20260504185508 74 198 3.5 7.0 0.00 0.00 0.00 31 1017.9
20260504185006 74 349 0.9 3.5 0.00 0.00 0.00 32 1017.9
20260504184508 75 8 1.7 3.5 0.00 0.00 0.00 30 1017.9
20260504184007 76 153 0.0 3.5 0.00 0.00 0.00 35 1018.1
20260504183507 75 230 0.0 3.5 0.00 0.00 0.00 40 1018.2
20260504182507 74 320 1.7 3.5 0.00 0.00 0.00 34 1018.3
20260504182007 74 0 0.0 3.5 0.00 0.00 0.00 34 1018.4
20260504181507 74 237 0.9 2.6 0.00 0.00 0.00 36 1018.5
20260504181009 73 0 0.0 3.5 0.00 0.00 0.00 38 1018.5
20260504180508 73 143 0.9 4.3 0.00 0.00 0.00 34 1018.6
20260504180015 73 173 1.7 5.2 0.00 0.00 0.00 34 1018.5
20260504175508 73 194 1.7 5.2 0.00 0.00 0.00 36 1018.7
20260504175007 73 196 1.7 5.2 0.00 0.00 0.00 36 1018.7
20260504174506 73 299 0.9 3.5 0.00 0.00 0.00 36 1018.7
20260504173508 73 191 0.9 4.3 0.00 0.00 0.00 36 1018.9
20260504173005 73 335 0.9 4.3 0.00 0.00 0.00 39 1019.0
20260504172506 72 333 0.0 2.6 0.00 0.00 0.00 38 1019.0
20260504172006 71 349 0.0 6.1 0.00 0.00 0.00 40 1019.2
20260504171506 71 9 0.9 6.1 0.00 0.00 0.00 37 1019.1
20260504171006 71 13 1.7 7.0 0.00 0.00 0.00 40 1019.3
20260504170507 71 6 2.6 7.0 0.00 0.00 0.00 39 1019.3
20260504151007 63 12 3.5 7.8 0.00 0.00 0.00 41 1020.8
20260504150507 63 7 4.3 8.7 0.00 0.00 0.00 42 1020.9
20260504141006 55 12 2.6 4.3 0.00 0.00 0.00 66 1021.1
20260504140507 54 22 1.7 2.6 0.00 0.00 0.00 70 1021.3
20260504130508 44 0 0.0 0.0 0.00 0.00 0.00 92 1021.2